1508173200.13,30466,18.25,74922.3,4.77,-27.07,-28.43,0,*71
1508173201.34,30467,18.25,74920.3,4.77,-27.07,-28.31,0,*75
1508173202.57,30468,18.19,74920.0,4.75,-27.13,-28.31,0,*7D
1508173203.8,30469,18.19,74924.0,4.75,-27.13,-28.31,0,*7C
1508173205.05,30470,18.25,74920.3,4.75,-26.93,-28.15,0,*7B
1508173206.34,30471,18.25,74924.8,4.75,-26.97,-28.25,0,*7D
1508173207.62,30472,18.19,74918.3,4.75,-26.97,-28.25,0,*7E
1508173208.91,30473,18.25,74924.0,4.75,-26.97,-28.25,0,*7F
1508173210.17,30474,18.25,74926.5,4.75,-27.07,-28.25,0,*70
1508173211.4,30475,18.25,74930.3,4.75,-27.07,-28.31,0,*74
1508173212.65,30476,18.19,74926.8,4.75,-26.65,-27.83,0,*74
1508173213.91,30477,18.19,74924.8,4.77,-26.77,-28.09,0,*79
1508173215.19,30478,18.19,74924.5,4.75,-26.93,-28.25,0,*70
1508173216.48,30479,18.25,74928.5,4.75,-26.97,-28.25,0,*75
1508173217.71,30480,18.19,74928.3,4.73,-26.93,-28.15,0,*72
1508173218.96,30481,18.25,74932.5,4.73,-26.81,-27.99,0,*7B
1508173220.22,30482,18.19,74932.3,4.73,-26.81,-28.09,0,*7E
1508173221.45,30483,18.19,74932.8,4.73,-26.93,-28.15,0,*71
1508173222.68,30484,18.19,74932.5,4.73,-27.07,-28.25,0,*79
1508173223.91,30485,18.19,74930.0,4.73,-26.93,-28.15,0,*77
1508173225.14,30486,18.19,74928.3,4.73,-26.65,-27.83,0,*7D
1508173226.37,30487,18.25,74928.8,4.73,-26.77,-27.93,0,*7E
1508173227.59,30488,18.19,74924.3,4.73,-26.45,-27.83,0,*71
1508173228.84,30489,18.25,74930.3,4.73,-26.29,-27.61,0,*76
1508173230.12,30490,18.19,74924.5,4.75,-26.17,-27.35,0,*74
1508173231.34,30491,18.19,74922.8,4.73,-26.13,-27.13,0,*73
1508173232.59,30492,18.19,74930.0,4.73,-25.45,-26.33,0,*73
1508173233.82,30493,18.19,74922.8,4.77,-25.23,-26.13,0,*74
1508173235.03,30494,18.19,74908.0,4.77,-25.45,-26.45,0,*70
1508173236.24,30495,18.19,74914.5,4.77,-25.87,-27.07,0,*78
1508173237.5,30496,18.19,74924.8,4.79,-26.17,-27.67,0,*79
1508173238.73,30497,18.19,74926.0,4.79,-25.87,-27.03,0,*70
1508173239.97,30498,18.19,74928.8,4.79,-25.65,-26.71,0,*77
1508173241.17,30499,18.19,74934.8,4.81,-25.35,-26.39,0,*78
1508173242.43,30500,18.19,74936.8,4.85,-25.03,-26.29,0,*79
1508173243.64,30501,18.19,74934.5,4.85,-25.29,-26.45,0,*7A
1508173244.86,30502,18.19,74928.5,4.87,-25.35,-26.45,0,*76
1508173246.09,30503,18.19,74928.3,4.87,-25.49,-26.65,0,*7E
1508173247.32,30504,18.25,74938.8,4.85,-25.65,-26.81,0,*7F
1508173248.57,30505,18.19,74934.8,4.87,-25.65,-26.93,0,*7F
1508173249.82,30506,18.19,74932.8,4.87,-25.97,-27.03,0,*79
1508173251.05,30507,18.19,74928.5,4.87,-25.91,-27.03,0,*7E
1508173252.25,30508,18.25,74912.0,4.89,-25.91,-27.29,0,*77
1508173253.49,30509,18.19,74898.8,4.89,-26.13,-27.45,0,*75
1508173254.71,30510,18.19,74898.8,4.89,-26.39,-27.61,0,*73
1508173255.9,30511,18.19,74902.8,4.89,-26.39,-27.77,0,*75
1508173257.16,30512,18.19,74902.3,4.87,-26.77,-27.77,0,*72
1508173258.38,30513,18.19,74916.8,4.89,-26.39,-27.61,0,*70
1508173259.58,30514,18.19,74912.0,4.89,-26.45,-27.71,0,*7D
1508173260.79,30515,18.19,74908.0,4.89,-26.71,-27.77,0,*7D
1508173262.01,30516,18.19,74910.0,4.89,-26.55,-27.89,0,*79
1508173263.27,30517,18.19,74902.5,4.87,-26.93,-28.15,0,*76
1508173264.52,30518,18.19,74904.3,4.87,-26.29,-27.67,0,*72
1508173265.78,30519,18.19,74918.8,4.87,-26.33,-27.77,0,*79
1508173267.0,30520,18.19,74920.5,4.87,-26.61,-27.77,0,*74
1508173268.25,30521,18.19,74918.3,4.85,-26.81,-28.09,0,*7F
1508173269.51,30522,18.19,74918.5,4.87,-26.65,-27.83,0,*79
1508173270.74,30523,18.19,74922.5,4.87,-26.65,-27.93,0,*79
1508173271.99,30524,18.19,74922.8,4.85,-26.81,-27.99,0,*7C
1508173273.25,30525,18.19,74920.5,4.85,-26.81,-28.09,0,*7B
1508173274.48,30526,18.19,74928.0,4.85,-26.93,-28.15,0,*76
1508173275.74,30527,18.19,74928.0,4.85,-26.77,-27.99,0,*76
1508173276.99,30528,18.19,74930.8,4.85,-26.77,-27.99,0,*79
1508173278.25,30529,18.19,74932.3,4.85,-26.77,-28.09,0,*7E
1508173279.53,30530,18.19,74930.0,4.87,-26.81,-27.99,0,*7B
1508173280.78,30531,18.19,74926.3,4.85,-26.81,-28.09,0,*7E
1508173282.01,30532,18.19,74926.0,4.85,-26.97,-28.37,0,*77
1508173283.27,30533,18.19,74922.0,4.85,-26.97,-28.21,0,*71
1508173284.53,30534,18.19,74928.5,4.85,-26.97,-28.21,0,*76
1508173285.76,30535,18.19,74930.0,4.85,-26.97,-28.31,0,*76
1508173286.99,30536,18.19,74930.8,4.85,-26.97,-28.37,0,*73
1508173288.23,30537,18.19,74932.0,4.85,-26.97,-28.15,0,*72
1508173289.45,30538,18.19,74932.0,4.81,-26.55,-27.89,0,*7D
1508173290.65,30539,18.19,74930.3,4.85,-26.49,-27.77,0,*74
1508173291.88,30540,18.19,74928.0,4.81,-26.65,-27.83,0,*7B
1508173293.1,30541,18.19,74928.3,4.81,-26.65,-27.83,0,*7A
1508173294.33,30542,18.19,74926.5,4.85,-26.65,-27.83,0,*7D
1508173295.57,30543,18.19,74926.5,4.85,-26.81,-28.15,0,*76
1508173296.8,30544,18.19,74930.8,4.85,-26.93,-28.15,0,*72
1508173298.05,30545,18.19,74932.0,4.85,-26.81,-28.09,0,*7D
1508173299.25,30546,18.19,74930.8,4.81,-26.87,-28.15,0,*71
1508173300.48,30547,18.19,74940.8,4.81,-26.39,-27.83,0,*75
1508173301.68,30548,18.19,74938.5,4.81,-26.49,-27.71,0,*70
1508173302.91,30549,18.19,74934.8,4.81,-26.17,-27.67,0,*7D
1508173304.11,30550,18.19,74936.8,4.81,-26.39,-27.67,0,*79
1508173305.37,30551,18.19,74930.3,4.85,-26.33,-27.61,0,*70
1508173306.59,30552,18.19,74930.3,4.85,-26.03,-27.45,0,*76
1508173307.8,30553,18.19,74930.3,4.85,-26.03,-27.29,0,*7D
1508173309.03,30554,18.19,74932.8,4.85,-26.03,-27.45,0,*70
1508173310.28,30555,18.19,74934.8,4.85,-26.13,-27.45,0,*70
1508173311.55,30556,18.19,74932.8,4.87,-25.97,-27.19,0,*77
1508173312.78,30557,18.19,74932.0,4.85,-25.97,-27.29,0,*77
1508173314.04,30558,18.19,74926.0,4.85,-25.97,-27.35,0,*75
1508173315.29,30559,18.19,74916.3,4.87,-25.97,-27.51,0,*74
1508173316.54,30560,18.19,74918.3,4.87,-25.91,-27.35,0,*7A
1508173317.77,30561,18.19,74914.3,4.87,-25.91,-27.29,0,*76
1508173318.99,30562,18.19,74916.3,4.89,-26.29,-27.55,0,*70
1508173320.18,30563,18.19,74914.0,4.89,-26.39,-27.71,0,*76
1508173321.43,30564,18.19,74912.0,4.89,-26.29,-27.61,0,*71
1508173322.63,30565,18.19,74914.5,4.89,-26.39,-27.71,0,*70
1508173323.85,30566,18.19,74914.0,4.89,-26.77,-27.93,0,*75
1508173325.1,30567,18.19,74914.0,4.91,-26.49,-27.83,0,*71
1508173326.3,30568,18.19,74912.8,4.89,-26.87,-28.15,0,*75
1508173327.53,30569,18.19,74912.3,4.89,-26.97,-28.31,0,*73
1508173328.78,30570,18.19,74916.0,4.87,-26.97,-28.37,0,*73
1508173330.07,30571,18.19,74912.0,4.87,-26.93,-28.21,0,*71
1508173331.32,30572,18.19,74912.0,4.87,-26.97,-28.37,0,*71
1508173332.6,30573,18.19,74918.5,4.87,-26.93,-28.09,0,*79
1508173333.85,30574,18.19,74918.8,4.87,-26.97,-28.37,0,*77
1508173335.11,30575,18.19,74926.3,4.85,-26.97,-28.21,0,*73
1508173336.34,30576,18.19,74926.3,4.85,-27.03,-28.21,0,*7C
1508173337.54,30577,18.19,74924.8,4.85,-27.29,-28.53,0,*70
1508173338.76,30578,18.19,74922.3,4.85,-27.19,-28.53,0,*7C
1508173340.0,30579,18.19,74922.8,4.85,-27.19,-28.47,0,*78
1508173341.23,30580,18.19,74928.5,4.85,-27.03,-28.21,0,*75
1508173342.48,30581,18.19,74930.0,4.85,-26.93,-28.21,0,*7C
1508173343.69,30582,18.19,74932.0,4.81,-27.07,-28.53,0,*72
1508173344.94,30583,18.19,74928.3,4.81,-26.81,-27.99,0,*75
1508173346.2,30584,18.19,74926.8,4.85,-26.81,-28.09,0,*70
1508173347.46,30585,18.19,74926.0,4.85,-26.97,-28.21,0,*7C
1508173348.66,30586,18.19,74924.3,4.81,-27.07,-28.37,0,*74
1508173349.89,30587,18.19,74928.0,4.79,-27.07,-28.53,0,*70
1508173351.14,30588,18.19,74926.3,4.79,-27.03,-28.25,0,*7A
1508173352.42,30589,18.19,74926.0,4.79,-27.23,-28.59,0,*72
1508173353.69,30590,18.19,74924.5,4.79,-27.23,-28.59,0,*7A
1508173354.95,30591,18.19,74926.8,4.79,-27.07,-28.43,0,*76
1508173356.2,30592,18.19,74922.0,4.79,-27.23,-28.37,0,*70
1508173357.47,30593,18.19,74922.8,4.79,-27.23,-28.43,0,*72
1508173358.72,30594,18.19,74932.3,4.79,-27.07,-28.43,0,*73
1508173359.95,30595,18.19,74926.0,4.79,-27.07,-28.37,0,*71
1508173361.18,30596,18.19,74924.5,4.85,-27.03,-28.21,0,*72
1508173362.43,30597,18.19,74918.0,4.79,-27.07,-28.43,0,*70
1508173363.69,30598,18.19,74916.5,4.79,-27.07,-28.25,0,*7F
1508173364.92,30599,18.19,74916.5,4.77,-27.29,-28.59,0,*77
1508173366.18,30600,18.19,74916.8,4.77,-27.39,-28.59,0,*75
1508173367.45,30601,18.19,74922.3,4.75,-27.35,-28.63,0,*73
1508173368.7,30602,18.19,74920.5,4.77,-27.35,-28.59,0,*7B
1508173369.93,30603,18.19,74930.3,4.75,-27.29,-28.53,0,*7F
1508173371.19,30604,18.19,74930.8,4.75,-26.65,-27.99,0,*78
1508173372.42,30605,18.19,74930.3,4.77,-26.77,-27.77,0,*78
1508173373.68,30606,18.19,74924.3,4.75,-26.93,-27.89,0,*72
1508173374.93,30607,18.19,74924.0,4.75,-26.81,-27.93,0,*7B
1508173376.13,30608,18.19,74930.3,4.77,-26.61,-27.71,0,*74
1508173377.36,30609,18.19,74926.5,4.77,-26.55,-27.71,0,*72
1508173378.56,30610,18.19,74926.8,4.77,-26.61,-27.77,0,*7B
1508173379.83,30611,18.19,74928.8,4.79,-26.71,-27.99,0,*75
1508173381.12,30612,18.19,74934.5,4.75,-26.97,-28.25,0,*7A
1508173382.34,30613,18.19,74932.8,4.77,-26.29,-27.55,0,*74
1508173383.55,30614,18.19,74930.5,4.77,-26.03,-27.13,0,*79
1508173384.76,30615,18.19,74930.0,4.77,-26.03,-27.29,0,*71
1508173386.0,30616,18.19,74934.3,4.79,-26.03,-27.07,0,*70
1508173387.21,30617,18.19,74930.0,4.81,-26.03,-27.03,0,*72
1508173388.47,30618,18.19,74932.3,4.79,-26.03,-27.23,0,*78
1508173389.72,30619,18.19,74930.8,4.79,-25.97,-27.07,0,*71
1508173390.95,30620,18.19,74934.3,4.81,-26.07,-27.39,0,*7B
1508173392.2,30621,18.19,74930.8,4.81,-26.17,-27.35,0,*77
1508173393.43,30622,18.19,74934.8,4.81,-26.33,-27.51,0,*70
1508173394.63,30623,18.19,74930.0,4.81,-26.39,-27.55,0,*7F
1508173395.84,30624,18.19,74926.0,4.81,-26.49,-27.67,0,*7E
1508173397.06,30625,18.19,74922.0,4.85,-26.45,-27.61,0,*71
1508173398.29,30626,18.19,74914.8,4.85,-26.33,-27.67,0,*75
1508173399.5,30627,18.19,74912.3,4.85,-26.49,-27.67,0,*79
1508173400.73,30628,18.19,74914.8,4.85,-26.65,-27.83,0,*72
1508173401.96,30629,18.19,74908.5,4.85,-26.33,-27.67,0,*7A
1508173403.18,30630,18.19,74910.5,4.85,-26.29,-27.77,0,*78
1508173404.43,30631,18.19,74914.3,4.87,-26.61,-27.83,0,*7C
1508173405.66,30632,18.19,74916.3,4.85,-26.93,-28.15,0,*70
1508173406.89,30633,18.19,74914.0,4.85,-26.65,-27.83,0,*78
1508173408.12,30634,18.19,74912.5,4.85,-26.81,-27.93,0,*74
1508173409.38,30635,18.19,74916.3,4.85,-26.81,-28.21,0,*73
1508173410.6,30636,18.19,74918.3,4.85,-26.61,-27.83,0,*79
1508173411.8,30637,18.19,74922.0,4.85,-26.65,-27.77,0,*77
1508173413.03,30638,18.19,74920.5,4.85,-26.65,-27.83,0,*73
1508173414.23,30639,18.19,74922.5,4.85,-26.61,-27.77,0,*7D
1508173415.48,30640,18.19,74920.5,4.85,-26.29,-27.61,0,*78
1508173416.73,30641,18.19,74916.8,4.87,-26.45,-27.61,0,*71
1508173418.01,30642,18.19,74914.0,4.87,-26.33,-27.61,0,*73
1508173419.24,30643,18.19,74914.3,4.87,-26.49,-27.77,0,*78
1508173420.49,30644,18.19,74916.0,4.85,-26.81,-28.09,0,*7F
1508173421.72,30645,18.19,74914.0,4.87,-26.61,-27.77,0,*74
1508173422.94,30646,18.19,74912.3,4.87,-26.49,-27.51,0,*79
1508173424.2,30647,18.19,74912.3,4.87,-26.49,-27.61,0,*7B
1508173425.48,30648,18.19,74908.0,4.87,-26.93,-28.09,0,*72
1508173426.68,30649,18.19,74916.0,4.85,-27.03,-28.31,0,*72
1508173427.88,30650,18.19,74910.3,4.85,-27.03,-28.31,0,*7A
1508173429.08,30651,18.19,74916.3,4.85,-27.03,-28.37,0,*7D
1508173430.31,30652,18.19,74916.0,4.85,-27.29,-28.47,0,*71
1508173431.53,30653,18.19,74916.3,4.85,-27.19,-28.37,0,*74
1508173432.76,30654,18.19,74920.0,4.81,-27.07,-28.25,0,*7B
1508173433.98,30655,18.19,74922.0,4.81,-27.03,-28.21,0,*7A
1508173435.21,30656,18.19,74922.8,4.81,-27.03,-28.21,0,*79
1508173436.47,30657,18.19,74914.3,4.85,-26.93,-27.99,0,*78
1508173437.69,30658,18.19,74908.5,4.81,-26.87,-28.21,0,*7A
1508173438.92,30659,18.19,74914.8,4.81,-26.81,-27.89,0,*70
1508173440.17,30660,18.19,74908.8,4.81,-26.55,-27.83,0,*79
1508173441.42,30661,18.19,74914.0,4.81,-26.97,-28.05,0,*77
1508173442.62,30662,18.19,74916.5,4.81,-26.87,-28.15,0,*74
1508173443.88,30663,18.19,74924.3,4.79,-26.81,-27.89,0,*7E
1508173445.11,30664,18.19,74920.5,4.81,-26.87,-27.99,0,*79
1508173446.33,30665,18.19,74918.3,4.85,-26.81,-27.93,0,*70
1508173447.56,30666,18.19,74920.3,4.81,-26.65,-27.83,0,*7C
1508173448.79,30667,18.19,74910.3,4.85,-26.77,-27.93,0,*7B
1508173450.04,30668,18.19,74908.3,4.85,-26.97,-28.09,0,*76
1508173451.27,30669,18.19,74908.0,4.81,-27.03,-28.25,0,*71
1508173452.47,30670,18.19,74906.3,4.81,-27.07,-28.37,0,*7E
1508173453.72,30671,18.19,74902.8,4.79,-27.23,-28.37,0,*7E
1508173454.98,30672,18.19,74908.5,4.79,-27.03,-28.21,0,*78
1508173456.18,30673,18.19,74912.0,4.81,-27.03,-28.15,0,*79
1508173457.41,30674,18.19,74908.8,4.81,-27.07,-28.43,0,*79
1508173458.66,30675,18.19,74908.8,4.79,-27.03,-28.21,0,*7F
1508173459.91,30676,18.19,74908.8,4.79,-27.07,-28.43,0,*7C
1508173461.17,30677,18.19,74912.0,4.79,-27.03,-28.21,0,*7D
1508173462.4,30678,18.19,74910.5,4.81,-26.97,-28.15,0,*7E
1508173463.65,30679,18.19,74914.5,4.79,-27.19,-28.37,0,*7F
1508173464.91,30680,18.19,74912.0,4.79,-27.07,-28.25,0,*75
1508173466.14,30681,18.19,74908.5,4.77,-27.03,-28.05,0,*7C
1508173467.36,30682,18.19,74914.0,4.77,-26.87,-28.05,0,*72
1508173468.6,30683,18.19,74914.5,4.79,-26.65,-27.71,0,*7D
1508173469.82,30684,18.19,74922.8,4.81,-26.55,-27.71,0,*7E
1508173471.04,30685,18.19,74920.0,4.79,-26.39,-27.71,0,*72
1508173472.29,30686,18.19,74912.8,4.79,-26.55,-27.67,0,*7C
1508173473.53,30687,18.19,74922.0,4.81,-26.81,-27.67,0,*73
1508173474.73,30688,18.19,74926.3,4.81,-26.39,-27.51,0,*7A
1508173476.0,30689,18.13,74920.0,4.79,-26.17,-27.23,0,*75
1508173477.23,30690,18.19,74930.0,4.81,-25.97,-27.03,0,*73
1508173478.47,30691,18.19,74926.0,4.81,-26.03,-27.23,0,*7E
1508173479.72,30692,18.19,74922.8,4.81,-26.17,-27.39,0,*73
1508173480.99,30693,18.19,74926.8,4.87,-26.17,-27.45,0,*7F
1508173482.24,30694,18.19,74924.0,4.85,-26.29,-27.61,0,*71
1508173483.47,30695,18.13,74922.0,4.87,-26.45,-27.67,0,*7E
1508173484.69,30696,18.19,74922.0,4.85,-26.45,-27.61,0,*79
1508173485.95,30697,18.19,74920.5,4.87,-26.33,-27.51,0,*78
1508173487.18,30698,18.19,74920.0,4.85,-26.13,-27.29,0,*78
1508173488.41,30699,18.19,74918.8,4.85,-26.03,-27.35,0,*75
1508173489.67,30700,18.19,74912.3,4.87,-26.03,-27.35,0,*76
1508173490.93,30701,18.19,74912.5,4.85,-26.17,-27.35,0,*70
1508173492.17,30702,18.19,74910.8,4.89,-26.29,-27.45,0,*75
1508173493.41,30703,18.19,74910.5,4.89,-26.13,-27.45,0,*7D
1508173494.63,30704,18.19,74906.3,4.89,-26.07,-27.39,0,*74
1508173495.85,30705,18.19,74906.0,4.89,-26.45,-27.61,0,*7E
1508173497.1,30706,18.19,74904.0,4.89,-26.55,-27.61,0,*7C
1508173498.31,30707,18.19,74906.0,4.89,-26.39,-27.45,0,*71
1508173499.54,30708,18.19,74904.8,4.89,-26.77,-27.77,0,*75
1508173500.76,30709,18.19,74904.5,4.89,-26.87,-28.05,0,*71
1508173501.98,30710,18.19,74910.8,4.89,-26.93,-28.15,0,*7D
1508173503.23,30711,18.19,74906.5,4.89,-26.93,-28.09,0,*71
1508173504.49,30712,18.13,74906.8,4.89,-26.97,-28.25,0,*78
1508173505.72,30713,18.19,74904.3,4.87,-27.03,-28.31,0,*7E
1508173507.0,30714,18.19,74908.3,4.87,-26.93,-28.09,0,*7A
1508173508.26,30715,18.19,74906.8,4.87,-26.97,-28.31,0,*74
1508173509.49,30716,18.19,74904.3,4.85,-27.03,-28.21,0,*78
1508173510.74,30717,18.19,74914.0,4.85,-26.93,-27.99,0,*7D
1508173511.99,30718,18.19,74918.5,4.85,-26.93,-28.21,0,*7E
1508173513.25,30719,18.19,74922.3,4.85,-26.97,-28.21,0,*7B
1508173514.48,30720,18.19,74922.3,4.85,-26.93,-28.15,0,*72
1508173515.74,30721,18.19,74924.3,4.85,-26.81,-27.99,0,*7B
1508173516.99,30722,18.19,74920.5,4.85,-26.81,-27.83,0,*73
1508173518.22,30723,18.13,74914.5,4.87,-26.61,-27.67,0,*74
1508173519.5,30724,18.19,74914.5,4.87,-26.81,-28.09,0,*7A
1508173520.78,30725,18.19,74916.5,4.87,-26.93,-28.09,0,*78
1508173522.01,30726,18.19,74916.5,4.85,-26.97,-28.15,0,*70
1508173523.27,30727,18.19,74922.0,4.85,-26.97,-27.99,0,*7A
1508173524.49,30728,18.19,74920.3,4.85,-26.93,-27.77,0,*71
1508173525.72,30729,18.19,74918.3,4.85,-26.49,-27.61,0,*70
1508173526.95,30730,18.19,74916.0,4.85,-26.49,-27.61,0,*78
1508173528.18,30731,18.19,74918.0,4.85,-26.33,-27.67,0,*72
1508173529.41,30732,18.19,74926.8,4.85,-26.65,-27.83,0,*78
1508173530.67,30733,18.19,74906.3,4.85,-26.81,-27.99,0,*78
1508173531.91,30734,18.13,74908.3,4.81,-26.71,-27.83,0,*7F
1508173533.17,30735,18.19,74914.5,4.81,-26.81,-27.99,0,*7A
1508173534.4,30736,18.19,74912.0,4.81,-26.97,-28.15,0,*75
1508173535.66,30737,18.19,74910.5,4.85,-26.81,-27.99,0,*7C
1508173536.92,30738,18.13,74892.5,4.79,-26.65,-27.83,0,*71
1508173538.14,30739,18.19,74900.5,4.85,-26.81,-27.93,0,*78
1508173539.37,30740,18.19,74912.8,4.81,-26.71,-27.89,0,*76
1508173540.57,30741,18.19,74924.5,4.81,-26.65,-27.71,0,*75
1508173541.77,30742,18.19,74932.8,4.81,-26.39,-27.55,0,*79
1508173543.04,30743,18.19,74918.0,4.87,-26.29,-27.45,0,*7E
1508173544.27,30744,18.13,74910.3,4.85,-26.49,-27.61,0,*7B
1508173545.47,30745,18.19,74912.0,4.85,-26.61,-27.77,0,*77
1508173546.67,30746,18.19,74918.8,4.85,-26.61,-27.67,0,*75
1508173547.92,30747,18.19,74918.3,4.81,-26.71,-27.83,0,*7B
1508173549.12,30748,18.19,74920.0,4.81,-26.49,-27.71,0,*72
1508173550.31,30749,18.19,74926.5,4.85,-26.61,-27.77,0,*7B
1508173551.51,30750,18.19,74924.3,4.85,-26.65,-27.77,0,*77
1508173552.74,30751,18.13,74924.8,4.85,-26.13,-27.29,0,*7C
1508173553.97,30752,18.13,74926.3,4.85,-26.03,-27.19,0,*7D
1508173555.22,30753,18.19,74924.5,4.87,-25.91,-26.93,0,*75
1508173556.47,30754,18.19,74922.3,4.87,-25.91,-26.81,0,*71
1508173557.69,30755,18.13,74914.5,4.87,-25.61,-26.49,0,*7B
1508173558.94,30756,18.19,74916.8,4.87,-25.29,-26.45,0,*78
1508173560.18,30757,18.19,74914.8,4.87,-25.29,-26.45,0,*79
1508173561.38,30758,18.19,74922.3,4.89,-25.13,-26.23,0,*71
1508173562.59,30759,18.13,74924.5,4.91,-25.09,-25.91,0,*78
1508173563.79,30760,18.13,74920.0,4.95,-25.09,-26.23,0,*7C
1508173565.05,30761,18.19,74926.5,4.93,-25.09,-26.33,0,*7A
1508173566.28,30762,18.13,74928.0,4.95,-24.83,-25.87,0,*70
1508173567.51,30763,18.13,74900.0,4.95,-25.61,-25.97,0,*7D
1508173568.79,30764,18.13,74908.5,4.97,-25.29,-26.29,0,*72
1508173570.01,30765,18.19,74916.0,4.97,-25.65,-26.45,0,*71
1508173571.23,30766,18.19,74922.0,4.99,-24.93,-26.13,0,*77
1508173572.48,30767,18.19,74922.0,5.01,-24.93,-25.75,0,*75
1508173573.72,30768,18.19,74906.8,5.01,-25.35,-26.55,0,*76
1508173574.97,30769,18.19,74900.5,5.01,-26.07,-27.35,0,*72
1508173576.22,30770,18.13,74892.0,5.03,-26.17,-27.39,0,*75
1508173577.45,30771,18.13,74894.8,5.01,-25.87,-27.07,0,*71
1508173578.7,30772,18.13,74920.0,5.01,-25.91,-26.93,0,*79
1508173579.92,30773,18.19,74920.0,5.03,-25.35,-26.33,0,*7E
1508173581.15,30774,18.19,74914.0,5.03,-25.23,-26.33,0,*7E
1508173582.34,30775,18.13,74898.0,5.07,-25.61,-26.87,0,*72
1508173583.6,30776,18.13,74880.0,5.07,-26.13,-27.35,0,*7F
1508173584.84,30777,18.19,74884.5,5.03,-26.55,-27.83,0,*75
1508173586.07,30778,18.13,74894.3,5.09,-26.45,-27.89,0,*7B
1508173587.27,30779,18.19,74886.8,5.03,-26.39,-27.71,0,*7C
1508173588.5,30780,18.13,74886.3,5.03,-26.49,-27.83,0,*70
1508173589.74,30781,18.13,74902.5,5.01,-26.55,-27.89,0,*74
1508173590.97,30782,18.13,74908.5,5.03,-26.55,-27.67,0,*75
1508173592.18,30783,18.13,74904.3,5.03,-26.65,-27.93,0,*7C
1508173593.4,30784,18.13,74896.0,5.01,-26.65,-27.93,0,*79
1508173594.63,30785,18.13,74898.3,5.03,-26.71,-27.89,0,*74
1508173595.85,30786,18.13,74912.8,5.03,-26.71,-27.89,0,*77
1508173597.1,30787,18.13,74918.5,5.01,-26.77,-27.93,0,*79
1508173598.32,30788,18.13,74910.0,5.03,-26.71,-27.93,0,*72
1508173599.57,30789,18.13,74908.0,5.01,-26.87,-28.25,0,*7A
1508173600.83,30790,18.13,74906.0,5.01,-27.03,-28.25,0,*7F
1508173602.08,30791,18.13,74910.8,5.01,-27.07,-28.43,0,*7A
1508173603.3,30792,18.13,74918.5,5.01,-27.03,-28.37,0,*7E
1508173604.55,30793,18.13,74916.8,5.01,-27.03,-28.25,0,*7C
1508173605.79,30794,18.19,74918.3,4.99,-26.97,-28.31,0,*72
1508173607.03,30795,18.13,74914.5,4.99,-26.81,-28.15,0,*72
1508173608.29,30796,18.19,74914.3,4.99,-26.97,-28.25,0,*75
1508173609.54,30797,18.13,74914.5,4.97,-27.13,-28.47,0,*73
1508173610.78,30798,18.19,74914.3,4.97,-27.13,-28.47,0,*7C
1508173612.03,30799,18.13,74914.3,4.95,-27.19,-28.47,0,*75
1508173613.27,30800,18.13,74912.8,4.95,-27.19,-28.47,0,*7A
1508173614.52,30801,18.13,74916.0,4.95,-27.19,-28.47,0,*7B
1508173615.77,30802,18.13,74914.0,4.93,-26.87,-28.21,0,*78
1508173617.05,30803,18.19,74918.8,4.93,-26.93,-28.43,0,*78
1508173618.31,30804,18.13,74916.5,4.93,-26.93,-28.37,0,*7C
1508173619.57,30805,18.13,74918.8,4.93,-26.87,-28.21,0,*7F
1508173620.77,30806,18.13,74924.0,4.95,-26.87,-28.15,0,*7D
1508173622.01,30807,18.13,74924.8,4.95,-26.97,-28.15,0,*7D
1508173623.24,30808,18.19,74924.8,4.93,-26.87,-27.89,0,*7F
1508173624.47,30809,18.13,74918.0,4.95,-26.61,-27.83,0,*7A
1508173625.7,30810,18.13,74918.3,4.95,-26.77,-27.77,0,*7E
1508173626.93,30811,18.13,74926.8,4.95,-26.61,-27.61,0,*7F
1508173628.16,30812,18.13,74918.3,4.95,-26.17,-27.13,0,*78
1508173629.41,30813,18.13,74918.8,4.95,-26.13,-27.19,0,*77
1508173630.65,30814,18.13,74914.8,4.95,-26.45,-27.61,0,*7C
1508173631.9,30815,18.13,74912.0,4.97,-26.61,-27.99,0,*7E
1508173633.16,30816,18.13,74912.8,4.97,-26.81,-28.15,0,*78
1508173634.39,30817,18.13,74908.3,4.99,-26.81,-28.15,0,*77
1508173635.65,30818,18.19,74912.8,4.99,-26.93,-28.25,0,*78
1508173636.88,30819,18.13,74910.3,4.97,-26.87,-28.31,0,*77
1508173638.16,30820,18.13,74916.3,4.97,-26.81,-28.21,0,*7A
1508173639.42,30821,18.13,74910.5,4.95,-26.77,-28.21,0,*70
1508173640.63,30822,18.13,74918.0,4.95,-26.61,-27.93,0,*72
1508173641.86,30823,18.13,74918.0,4.95,-26.87,-28.05,0,*7B
1508173643.12,30824,18.13,74918.3,4.95,-26.81,-28.21,0,*7C
1508173644.36,30825,18.13,74926.0,4.95,-26.65,-27.99,0,*7B
1508173645.62,30826,18.13,74928.5,4.95,-26.77,-28.05,0,*71
1508173646.83,30827,18.19,74932.3,4.95,-26.65,-27.77,0,*79
1508173648.1,30828,18.13,74930.3,4.97,-26.13,-27.45,0,*74
1508173649.35,30829,18.13,74922.3,4.99,-26.13,-27.23,0,*7B
1508173650.62,30830,18.13,74924.3,4.97,-26.13,-27.45,0,*7D
1508173651.87,30831,18.13,74920.5,4.97,-26.03,-27.45,0,*7D
1508173653.07,30832,18.13,74926.0,4.99,-26.07,-27.55,0,*75
1508173654.3,30833,18.13,74922.5,4.99,-26.07,-27.45,0,*75
1508173655.55,30834,18.13,74924.5,4.99,-26.13,-27.23,0,*77
1508173656.8,30835,18.13,74922.0,4.97,-25.49,-26.77,0,*74
1508173658.05,30836,18.13,74920.5,4.99,-25.45,-26.71,0,*73
1508173659.3,30837,18.13,74920.5,5.01,-26.07,-27.19,0,*78
1508173660.53,30838,18.13,74924.5,5.03,-25.75,-27.03,0,*78
1508173661.78,30839,18.13,74916.0,5.01,-25.75,-27.03,0,*7B
1508173663.01,30840,18.13,74916.8,5.03,-25.65,-26.77,0,*74
1508173664.24,30841,18.13,74914.3,5.07,-25.71,-27.03,0,*76
1508173665.47,30842,18.13,74912.3,5.07,-25.87,-27.19,0,*77
1508173666.72,30843,18.13,74918.0,5.09,-25.97,-27.29,0,*7A
1508173667.97,30844,18.13,74912.0,5.07,-26.13,-27.45,0,*76
1508173669.22,30845,18.13,74916.3,5.07,-26.17,-27.61,0,*75
1508173670.45,30846,18.13,74912.0,5.07,-26.49,-27.83,0,*71
1508173671.68,30847,18.13,74918.3,5.07,-26.87,-28.21,0,*75
1508173672.93,30848,18.13,74918.0,5.07,-26.97,-28.21,0,*7B
1508173674.17,30849,18.13,74916.5,5.07,-26.65,-28.05,0,*71
1508173675.43,30850,18.13,74916.8,5.09,-26.65,-28.05,0,*77
1508173676.69,30851,18.13,74914.3,5.07,-26.81,-28.21,0,*74
1508173677.92,30852,18.13,74912.5,5.07,-26.97,-28.37,0,*77
1508173679.15,30853,18.13,74916.8,5.07,-26.97,-28.31,0,*70
1508173680.41,30854,18.13,74918.0,5.03,-26.93,-28.25,0,*72
1508173681.67,30855,18.13,74912.0,5.03,-26.77,-28.21,0,*7D
1508173682.92,30856,18.13,74912.0,5.03,-26.77,-28.09,0,*74
1508173684.16,30857,18.13,74906.8,5.03,-27.07,-28.25,0,*7D
1508173685.4,30858,18.13,74900.8,5.03,-27.19,-28.43,0,*7D
1508173686.64,30859,18.13,74904.5,5.03,-27.19,-28.43,0,*7C
1508173687.88,30860,18.13,74900.5,5.01,-27.19,-28.53,0,*75
1508173689.11,30861,18.13,74896.8,5.01,-27.07,-28.37,0,*79
1508173690.33,30862,18.13,74900.5,5.01,-27.03,-28.37,0,*7E
1508173691.56,30863,18.13,74896.5,5.03,-27.03,-28.25,0,*7E
1508173692.79,30864,18.13,74896.0,5.01,-27.07,-28.37,0,*7C
1508173694.04,30865,18.13,74904.3,5.01,-27.07,-28.43,0,*7E
1508173695.31,30866,18.13,74904.5,5.01,-27.35,-28.59,0,*77
1508173696.55,30867,18.13,74902.0,4.99,-27.29,-28.63,0,*72
1508173697.8,30868,18.13,74900.3,4.99,-27.23,-28.47,0,*71
1508173699.02,30869,18.13,74900.5,4.99,-27.13,-28.43,0,*77
1508173700.28,30870,18.13,74902.0,4.97,-26.81,-28.31,0,*7E
1508173701.52,30871,18.13,74900.3,4.99,-26.93,-28.31,0,*72
1508173702.78,30872,18.13,74914.3,4.97,-26.97,-28.31,0,*7B